User: anonymous   Login
Location: Laterina
(43.5167°N, 11.7167°E)
Time: 04:00:06
(UTC+00:00)
Language:

ARGOS - Orbit

View from above orbital plane
View from above orbital plane
View from above satellite
View from above satellite

Ground track
Ground track

The orbit data is extracted from the following two-line orbital elements,

1 25634U 99008A   20336.53348404 +.00000003 +00000-0 +21053-4 0  9999
2 25634 098.4424 007.7216 0010791 148.5545 211.6279 14.19383625127185
Epoch (UTC): 01 December 2020 12:48:13
Eccentricity: 0.0010791
inclination: 98.4424°
perigee height: 819 km
apogee height: 835 km
right ascension of ascending node: 7.7216°
argument of perigee: 148.5545°
revolutions per day: 14.19383625
mean anomaly at epoch: 211.6279°
orbit number at epoch: 12718

The dashed part of the orbit path shows where the satellite is in the earth's shadow,  

DLR